Location: *
(13.0000°N, 151.6000°E)
Time: 15:51:18
(UTC+00:00)

CRYOSAT 2 - Pass Details

Date: 01 April 2020
Orbit: 715 x 722 km, 92.0° (Epoch: 03 June)

Event Time Altitude Azimuth Distance (km) Brightness Sun altitude
Rises 19:14:27 0° 360° (N) 3,110 7.8 -9.3°
Reaches altitude 10° 19:16:45 10° 357° (N) 2,191 6.9 -8.7°
Maximum altitude 19:21:32 63° 277° (W) 798 4.4 -7.5°
Drops below altitude 10° 19:26:19 10° 196° (SSW) 2,194 6.7 -6.4°
Sets 19:28:37 0° 193° (SSW) 3,114 7.5 -5.8°
